Tracking 19192 objects as of 20-Jun-2018
HD Live streaming from Space Station
objects crossing your sky now

DMSP 5D-2 F15 DEB

Track DMSP 5D-2 F15 DEB now!
10-day predictions


NORAD ID: 26146
Int'l Code: 1999-067D
Perigee: 651.0 km
Apogee: 661.9 km
Inclination: 98.8 °
Period: 97.7 minutes
Semi major axis: 7027 km
RCS: 0.1199 m2 (medium)
Launch date: December 12, 1999
Source: United States (US)
Launch site: AIR FORCE WESTERN TEST RANGE (AFWTR)

Note: This is SATELLITE DEBRIS
aabbcc
Your satellite tracking list
Your tracking list is empty




NASA's NSSDC Master Catalog

Two Line Element Set (TLE):
1 26146U 99067D   18170.82025347 +.00001869 +00000-0 +29529-3 0  9992
2 26146 098.8233 258.5076 0007733 147.2094 212.9593 14.73685163970038
Source of the keplerian elements: AFSPC